ONEWEB-0020, 45133

Orbit data source: Space-Track

ONEWEB-0020, 45133 is a payload satellite owned by One Web (UK) in LEO that was launched on Thu, 06 Feb 2020 UTC via a SOYUZ-2-1B launch vehicle from the Tyuratam Missile And Space Complex (TTMTR). Payload-class satellites include a variety of spacecraft equipped with specific instruments for various scientific and technological missions. These include communications satellites like Starlink; space stations such as the ISS; scientific satellites like the Hubble; Earth observation satellites from companies like Planet Labs, Umbra, and HawkEye 360; GPS; miniature CubeSats for education and research; and military/defense satellites.

Loading next visibility...
Identifier
45133, 2020-008C
Orbit
LEO
Last TLE update
15 hours ago
Origin
Manufacturer
One Web
Mission
Operational Commercial Communications
Bus & Motor
ARROW, Unknown motor
Mass
148 kg wet, ~140 kg dry
Launch date (UTC)
2020-02-06 (5 years ago)
Launch vehicle
SOYUZ-2-1B
Launch site
Tyuratam Missile And Space Complex (TTMTR)
Object type
Payload
Rocket body
Debris
Shape & HBR
Trap Box + 2 Pan, 5 m
Radar Cross Section
2.957 m², Large (>1 m²)

Expand to show TLE details & history

TLE from 15 hours ago
0 ONEWEB-0020
1 45133U 20008C   25181.80170050 -.00000177  00000-0 -54309-3 0  9995
2 45133  87.8824 106.3342 0001986  71.7456 288.3887 13.10369622262320
Epoch: 2025-06-30T19:14Z
TLE epoch observation values (Epoch: 2025-06-30T19:14:26.923Z)
Latitude
-0.00004°
Longitude
-101.38427°
Altitude
1,224.141 km
Speed
7.243 km/s
True Right ascension
07h 05m 20s
True Declination
0° 00' 00"
Sunlit
Object was in daylight at epoch
Visualization orbit readout
Latitude
16.88606°
Longitude
-100.86672°
Altitude
1,223.102 km
Speed
7.245 km/s
Apparent Right ascension
08h 07m 18s
Apparent Declination
-9° 13' 07"
Sunlit
Object is in daylight
Visualization observer readout
Local Sidereal Time
21:37:35
Azimuth
39.353° NE
Elevation
-53.311°
Doppler factor
1
Orbital elements
Apogee altitude
1,220.358 km
Perigee altitude
1,217.341 km
Semi-major axis
7,596.986 km
Eccentricity
0.0002
Inclination
87.8824°
RAAN
106.3342°
Arg. of periapsis
71.7456°
True anomaly
Unknown
Mean anomaly
288.3887°
Eccentric anomaly
Unknown
Mean motion
3.27779 °/min
Orbital period
109.83 mins
BSTAR
-0.00054309
Loading maneuver chart data...
Loading SW <> Apogee altitude chart data...
Loading historical data...
Loading historical data...
Loading historical data...
Loading historical data...
Loading historical data...
Loading historical data...
Loading historical data...

ONEWEB-0020 Visibility forecast

Observer location: undefined°, undefined°

Span
Click to sort rows by Start time (UTC) header in descending order
Start Az.
Max El. time (UTC)
Max El. Az.
Max El.
End time (UTC)
End Az.
13 mins2025-07-01 19:10:13.189Z167.485° S2025-07-01 19:16:13.189Z76.964° E43.483°2025-07-01 19:23:13.189Z5.109° NNE
8 mins2025-07-01 21:03:13.189Z251.909° W2025-07-01 21:06:13.189Z280.125° WNW18.758°2025-07-01 21:11:13.189Z326.16° NNW
13 mins2025-07-02 06:40:13.189Z9.947° NNE2025-07-02 06:46:13.189Z84.17° E40.36°2025-07-02 06:53:13.189Z163.828° S
10 mins2025-07-02 08:31:13.189Z327.798° NNW2025-07-02 08:35:13.189Z289.516° WNW22.849°2025-07-02 08:41:13.189Z233.435° WSW
|